Theta_e
313 314 317 320 321 323 325 327 328 327 326 326 326 326 326 325 326 327 326 325 324 326 326 328 328 324 325 323 324 325 324 326 325 324 329 330 330 331 331 331 332 331 329 330
316 315 318 318 320 321 323 325 327 327 326 327 325 326 328 328 328 327 325 325 326 327 329 329 329 325 324 325 326 326 330 323 323 330 330 331 332 330 331 332 333 330 329 329
317 317 316 317 319 320 321 323 325 325 325 325 324 325 327 328 327 326 325 324 323 327 329 331 330 329 329 329 327 327 328 322 324 331 330 323 327 328 331 332 332 332 328 328
315 317 317 316 317 320 321 321 320 321 322 324 324 329 328 328 328 328 326 324 325 329 330 332 331 331 330 331 331 332 328 323 324 321 330 332 330 330 332 331 331 330 328 329
315 316 317 318 317 318 319 319 320 320 322 323 323 325 328 328 328 328 327 325 327 330 331 332 331 331 331 331 332 332 325 327 326 321 331 331 329 332 331 331 330 330 329 328
315 315 316 318 317 317 318 319 320 321 322 325 324 326 328 329 329 329 328 324 329 331 331 331 331 330 331 331 331 331 331 332 325 329 331 326 332 331 331 332 331 329 330 328
316 316 315 316 317 317 318 320 323 325 327 327 326 328 329 328 327 326 326 327 331 331 331 331 330 331 331 331 331 332 332 332 332 332 331 329 330 329 331 331 331 329 328 329
316 318 316 315 317 318 319 322 322 325 329 329 327 328 329 326 326 325 324 324 330 331 331 331 330 331 330 330 331 331 332 331 331 331 331 328 328 331 331 330 331 328 328 327
317 318 317 316 316 318 319 323 322 327 328 326 330 328 325 325 326 325 327 324 329 331 331 330 331 330 330 331 332 332 331 330 331 331 330 330 332 331 330 329 328 328 328 329
316 319 319 316 317 318 320 321 324 324 328 328 326 326 326 326 327 326 328 329 330 332 331 330 330 330 330 331 332 331 329 330 330 331 331 332 332 332 329 331 331 329 328 330
315 317 320 318 317 318 319 322 322 324 324 327 328 325 324 327 326 328 331 331 333 332 330 330 330 330 331 331 331 329 329 330 331 330 332 333 332 331 330 330 331 329 329 331
314 318 322 319 318 319 319 320 322 323 324 324 325 323 326 328 330 330 331 331 332 331 330 330 329 330 330 331 330 328 328 329 330 330 332 333 332 331 330 331 331 330 330 330
311 317 321 321 320 318 319 320 322 323 325 325 324 321 322 328 329 331 333 332 331 331 330 330 330 330 330 331 329 327 328 328 329 330 331 332 332 332 331 331 329 331 330 330
310 315 319 322 320 319 319 319 321 322 323 323 322 321 323 328 329 331 332 331 331 331 331 330 330 329 330 331 327 326 327 327 328 329 330 332 332 332 331 331 331 330 330 329
313 315 317 318 318 318 321 319 319 321 321 322 321 321 321 326 327 329 329 331 331 332 331 331 330 330 330 330 326 326 326 327 327 329 329 332 331 331 330 331 331 329 330 325
313 317 316 318 317 318 319 320 319 319 320 321 320 321 321 322 322 322 329 331 331 332 331 331 330 330 330 329 326 326 326 326 327 328 329 331 331 331 331 331 331 330 326 325
313 315 317 318 317 319 320 320 320 319 320 320 321 321 321 322 323 323 326 329 330 332 331 331 330 330 331 329 326 326 326 326 326 327 328 330 331 330 331 330 330 331 328 326
312 315 316 319 318 321 323 322 320 321 320 320 319 321 322 322 321 323 324 329 330 331 332 332 331 331 331 328 326 326 326 325 325 326 327 328 330 330 331 328 329 330 329 328
311 314 319 320 320 319 322 323 324 321 323 322 324 323 323 322 323 323 323 323 328 331 332 332 332 332 331 329 327 326 325 325 324 325 326 327 329 331 330 327 327 330 329 328
312 312 316 319 322 320 325 322 320 322 327 321 321 323 324 324 323 324 328 329 328 330 332 333 332 332 332 330 327 326 325 324 323 324 325 326 329 331 331 329 327 328 329 330
314 314 315 317 321 324 321 320 319 326 325 320 320 321 322 325 325 325 325 326 328 330 332 333 333 332 332 330 328 326 325 325 324 323 324 325 328 331 332 330 327 328 327 330
314 315 315 315 319 324 318 320 324 319 318 319 319 320 320 321 322 323 324 326 327 329 331 332 333 332 332 331 329 326 325 325 324 323 323 325 326 329 331 331 328 326 327 327
318 316 318 318 320 314 315 316 315 315 317 318 318 319 319 321 323 324 325 329 330 327 330 332 332 333 332 331 329 327 326 325 325 324 324 325 326 327 331 331 328 326 325 324
314 312 316 318 314 313 313 314 314 314 316 316 317 318 319 321 323 324 325 328 331 328 330 331 332 332 332 331 330 328 327 324 325 325 325 325 326 325 329 330 329 326 324 321
309 309 311 316 315 313 314 314 313 313 314 315 317 317 318 320 322 325 327 328 330 328 330 331 331 332 332 331 330 329 328 325 325 326 326 326 325 325 327 329 329 328 327 323
310 311 313 315 312 312 312 312 312 312 313 313 315 317 318 319 321 324 329 330 330 327 328 330 331 332 332 331 330 329 329 327 326 326 326 326 325 324 325 325 328 328 328 325
Wind_Speed
29 20 27 41 34 27 26 29 26 23 18 22 24 25 23 21 25 29 30 30 32 28 24 19 19 16 14 13 14 17 23 27 25 22 18 14 12 10 9 10 12 13 13 13
19 30 47 31 28 29 29 30 29 25 22 24 21 27 26 23 24 29 29 26 27 22 18 15 14 10 10 10 14 18 22 24 25 18 14 11 10 8 9 9 11 11 11 12
34 43 26 32 30 30 32 31 27 30 21 22 22 27 29 25 31 24 22 28 31 22 19 12 7 7 9 12 15 19 22 25 22 15 13 11 8 8 7 8 7 8 8 8
33 35 28 32 34 34 33 27 26 25 22 24 22 25 25 21 19 21 27 27 21 15 10 7 8 9 11 13 17 21 23 24 20 16 10 9 7 7 7 7 8 8 7 7
32 28 36 30 41 28 33 20 23 22 21 25 29 20 22 21 22 24 18 25 17 8 7 8 9 11 15 19 21 21 23 19 15 13 8 5 5 5 4 5 8 9 9 8
29 15 23 40 22 28 21 17 19 19 17 21 24 23 22 20 27 25 18 21 13 9 8 11 12 16 21 21 21 20 19 15 13 10 8 6 6 5 4 6 8 8 6 7
22 30 18 21 28 24 25 21 10 12 14 19 19 17 18 16 13 13 10 11 11 10 12 15 19 21 24 24 21 19 16 13 12 9 6 6 6 5 4 5 7 5 5 5
20 21 31 20 31 24 31 26 13 17 15 16 18 12 16 13 21 29 27 15 9 12 14 18 21 23 24 23 20 17 15 13 11 9 6 6 4 3 3 4 3 3 3 4
19 25 28 22 24 32 26 27 25 13 12 8 14 17 15 19 21 15 14 19 14 14 16 21 24 24 24 22 20 16 14 12 11 8 7 5 3 2 3 2 1 1 2 2
6 10 20 31 24 27 25 24 21 16 19 16 12 12 10 7 11 13 14 15 18 16 20 24 25 25 23 21 18 15 13 12 12 8 7 4 2 2 2 2 2 2 3 5
13 9 15 23 26 27 21 21 21 17 13 16 11 8 9 13 9 11 13 17 18 20 23 26 25 24 22 20 17 15 14 13 12 9 7 5 1 1 3 3 3 3 4 6
7 6 11 27 22 25 28 22 27 13 21 12 10 5 2 6 1 10 11 13 18 22 25 26 26 25 23 21 18 16 14 13 12 10 7 5 2 1 4 4 3 2 5 5
4 9 9 11 23 22 28 24 26 17 15 21 12 2 6 4 5 6 7 15 22 26 26 27 27 26 23 21 18 16 15 13 12 11 8 6 3 2 3 4 4 4 5 7
5 5 14 8 19 11 23 25 24 24 12 12 15 12 7 7 9 8 8 15 22 25 28 28 27 25 23 21 18 17 16 14 13 11 10 7 4 4 4 5 5 6 6 7
4 7 19 19 9 7 13 24 25 25 22 16 12 15 15 8 9 8 4 15 20 24 26 27 28 26 24 21 19 17 16 15 14 12 11 9 7 5 6 6 5 7 8 7
4 1 11 20 15 11 8 10 23 24 22 20 15 17 14 18 19 10 3 13 21 23 25 26 27 27 26 23 21 19 18 17 15 13 12 10 9 7 6 6 5 7 9 9
4 4 5 19 19 10 11 15 15 19 22 19 19 20 15 15 8 10 7 8 20 25 26 28 30 29 26 24 23 21 19 18 16 14 12 12 11 8 6 5 5 6 9 10
8 7 4 8 16 13 7 8 13 13 18 19 19 16 17 12 11 10 10 2 15 22 25 25 27 27 26 23 23 21 19 19 18 15 14 13 12 10 8 6 6 6 10 7
13 10 3 5 12 9 7 9 4 12 9 5 7 9 13 15 16 16 13 11 11 20 21 22 25 28 28 26 24 23 21 20 19 17 15 14 14 12 10 8 6 6 7 6
13 10 6 4 10 18 10 9 6 6 9 8 6 5 6 7 11 8 13 15 4 12 23 23 24 27 28 28 26 25 23 22 21 19 17 15 15 13 11 9 7 7 6 7
8 6 8 6 6 5 11 10 3 11 4 10 9 9 9 8 12 25 21 14 8 6 16 21 27 31 31 30 28 26 24 23 21 20 18 16 16 15 12 11 8 9 8 7
8 6 4 3 4 5 18 3 5 7 8 10 11 12 14 17 19 19 20 17 13 8 16 24 27 30 31 32 30 28 26 23 22 21 20 18 17 16 14 13 11 10 9 9
4 1 2 2 3 3 8 12 10 9 10 11 14 16 17 20 20 18 17 15 12 10 15 23 25 27 31 33 32 29 27 25 24 23 22 20 18 18 16 15 13 11 11 9
6 11 3 5 7 7 7 7 12 14 12 15 15 17 18 20 20 20 17 13 11 12 17 24 27 29 32 33 33 29 27 27 26 25 23 22 20 19 18 17 15 13 12 12
3 6 5 5 6 7 6 9 16 18 17 17 17 18 19 20 21 18 18 14 11 14 18 24 29 31 33 34 34 30 29 29 28 26 24 23 22 22 19 19 17 16 14 13
2 3 4 3 14 8 13 19 20 22 19 20 21 21 20 19 21 22 19 14 11 13 18 23 27 28 30 32 35 33 32 32 31 29 26 25 23 23 21 21 19 21 18 18
Wind_Direction
198 203 214 218 218 234 247 245 240 242 243 252 260 260 260 263 273 279 289 288 289 282 281 279 275 276 254 232 206 202 200 197 188 195 196 210 228 240 248 256 259 256 262 262
189 215 222 218 222 225 236 245 247 253 242 250 249 267 268 262 271 279 276 281 280 288 283 274 268 254 230 202 190 188 186 190 189 187 190 204 215 236 245 255 254 255 255 266
214 220 216 219 221 224 228 235 241 251 261 248 259 266 268 264 259 271 264 267 278 273 279 264 227 203 184 179 180 179 180 184 183 182 195 215 228 247 267 266 258 244 250 250
228 232 217 222 225 219 231 223 244 256 254 251 246 269 265 274 273 262 268 271 258 257 251 213 185 167 167 164 161 162 170 178 188 195 192 196 219 244 239 233 243 242 245 225
222 225 227 219 224 218 237 230 238 240 248 258 249 259 266 261 265 261 261 265 242 235 220 194 175 160 154 152 154 159 169 176 185 193 182 199 226 224 232 245 252 245 236 214
237 215 224 230 217 220 224 221 230 236 242 242 246 252 258 264 261 265 257 250 197 183 159 154 153 149 147 148 154 159 166 172 182 178 186 204 192 202 240 266 262 249 251 219
228 238 235 230 209 202 201 190 196 218 222 241 242 247 251 267 240 258 250 241 167 163 153 151 152 153 148 153 158 160 165 170 172 172 180 187 192 220 265 277 275 256 229 202
223 223 223 209 215 190 195 192 203 214 226 240 223 247 232 242 252 249 250 241 168 166 155 154 154 156 153 156 161 161 168 170 171 171 178 185 208 243 279 283 256 222 197 192
222 233 192 221 213 199 195 211 210 253 229 279 210 230 274 257 254 245 233 214 188 170 157 155 156 156 157 161 163 164 168 170 169 171 177 188 199 223 251 265 200 176 138 156
291 269 222 196 206 205 197 196 202 222 233 226 246 230 237 197 229 229 223 201 181 167 157 157 160 159 160 163 161 163 169 168 168 172 172 181 192 229 225 177 192 168 156 148
280 258 235 184 204 192 199 198 213 211 227 213 229 230 215 243 239 215 194 174 168 167 161 161 161 162 162 164 163 167 167 167 171 170 168 165 162 237 172 160 154 157 147 148
321 278 273 198 202 216 200 208 197 201 199 255 217 217 6 286 29 220 199 161 167 165 161 162 163 163 165 166 168 171 170 170 172 171 162 150 122 166 173 141 117 122 137 142
14 235 233 220 198 206 200 207 195 212 198 208 222 208 235 135 133 138 142 154 157 156 158 162 165 167 170 169 172 176 174 173 173 169 164 150 126 132 152 138 125 116 123 133
234 264 245 194 190 191 208 208 195 209 217 188 212 207 221 161 112 108 129 158 159 161 163 165 167 171 174 172 176 179 178 177 175 169 167 164 142 137 145 140 116 124 123 132
247 262 233 251 289 296 280 210 211 207 218 226 199 220 226 214 112 66 112 165 168 168 167 171 171 173 175 174 178 181 181 179 177 173 171 171 158 142 127 109 111 132 126 139
230 260 268 246 231 246 249 247 215 214 214 224 241 227 243 268 289 294 179 189 183 177 176 176 174 175 177 177 180 182 182 181 178 175 175 174 173 170 156 134 110 126 141 131
277 292 225 236 215 222 246 216 219 220 216 216 221 237 248 246 268 242 243 207 202 188 181 180 179 179 179 179 181 183 180 179 178 177 177 176 176 176 165 160 144 139 137 142
273 293 266 232 197 212 94 44 208 207 215 217 231 239 235 240 270 264 262 252 204 197 189 185 181 181 180 177 181 181 179 179 178 179 180 179 176 177 173 157 155 134 147 143
221 272 274 223 204 199 113 34 348 187 113 16 310 293 291 290 309 280 265 261 228 209 199 192 188 180 177 176 181 181 179 180 181 183 183 182 177 175 174 165 156 147 145 145
203 226 292 267 203 212 53 2 322 283 167 23 345 326 323 308 246 228 20 12 295 221 195 190 185 182 179 177 179 182 181 181 184 186 183 182 179 178 176 171 160 151 141 130
189 211 234 244 258 83 355 335 226 211 77 350 344 334 316 281 279 312 319 318 315 271 206 194 184 183 181 178 178 183 185 185 185 184 182 182 180 180 180 176 167 156 137 131
185 197 183 226 254 191 359 31 317 22 346 349 342 333 318 300 300 298 300 296 285 274 205 197 189 184 182 181 181 184 188 184 183 183 183 183 182 179 183 182 172 161 154 135
214 302 295 328 39 23 7 62 42 10 345 350 338 334 324 312 311 308 299 290 272 240 210 197 194 190 182 184 185 186 187 183 182 184 184 185 183 182 186 184 179 171 164 158
28 3 300 287 47 351 319 26 8 0 346 340 338 332 330 320 318 312 304 292 272 227 206 195 191 197 187 187 188 189 184 182 184 184 184 186 186 185 188 188 190 185 180 178
337 330 328 294 19 358 305 291 326 332 331 336 336 337 334 327 324 318 306 291 271 223 203 195 195 197 198 187 187 186 185 182 184 186 186 187 189 189 192 190 195 194 196 187
21 353 348 330 325 319 292 303 310 318 322 329 331 333 335 334 330 327 316 300 274 225 206 201 198 199 200 195 186 186 187 185 184 185 188 191 190 193 195 195 200 198 199 202